Location: Unspecified
(0.0000°N, 0.0000°E)
Time: 03:26:28
(UTC+00:00)

Tiangong - Pass Details

Date: 04 March 2026
Orbit: 380 x 389 km, 41.5° (Epoch: 16 March)

Event Time Altitude Azimuth Distance (km) Brightness Sun altitude
Exits shadow 05:03:20 22° 209° (SSW) 909 -0.5 -17.0°
Maximum altitude 05:05:10 57° 136° (SE) 461 -1.6 -16.5°
Drops below altitude 10° 05:08:18 10° 56° (ENE) 1,409 1.4 -15.8°
Sets 05:10:23 0° 52° (NE) 2,262 2.5 -15.2°
